Tracking 20945 objects as of 8-Jul-2020
HD Live streaming from Space Station
objects crossing your sky now

FENGYUN 1C DEB

Track FENGYUN 1C DEB now!
10-day predictions


NORAD ID: 35243
Int'l Code: 1999-025DRB
Perigee: 647.9 km
Apogee: 824.7 km
Inclination: 98.9 °
Period: 99.4 minutes
Semi major axis: 7107 km
RCS: 0.0017 m2 (small)
Launch date: May 10, 1999
Source: People's Republic of China (PRC)
Launch site: Taiyaun Space Center, China (TSC)

Note: This is SATELLITE DEBRIS
aabbcc
Your satellite tracking list
Your tracking list is empty




NASA's NSSDC Master Catalog

Two Line Element Set (TLE):
1 35243U 99025DRB 20189.19729954 +.00000421 +00000-0 +11426-3 0  9992
2 35243 098.8751 096.5481 0124395 199.6611 159.9762 14.48924276620551
Source of the keplerian elements: AFSPC